| time (UTC) | temp F | wind direction | speed MPH | gust MPH | rain 1hr in | rain 24hr in | rain mn in | humidity % | barometer mb |
| 20260904231548 | 91 | 149 | 4.0 | 10.0 | 0.00 | 0.00 | 0.00 | 43 | 1011.6 |
| 20260904230052 | 91 | 155 | 4.0 | 12.0 | 0.00 | 0.00 | 0.00 | 44 | 1011.8 |
| 20260904224536 | 91 | 96 | 5.0 | 10.0 | 0.00 | 0.00 | 0.00 | 49 | 1011.8 |
| 20260904223042 | 89 | 127 | 3.0 | 13.0 | 0.00 | 0.00 | 0.00 | 49 | 1011.9 |
| 20260904221535 | 91 | 198 | 7.0 | 11.0 | 0.00 | 0.00 | 0.00 | 49 | 1012.0 |
| 20260904220034 | 90 | 148 | 8.0 | 14.0 | 0.00 | 0.00 | 0.00 | 52 | 1012.0 |
| 20260904214533 | 89 | 106 | 5.0 | 13.0 | 0.00 | 0.00 | 0.00 | 56 | 1012.1 |
| 20260904213033 | 90 | 221 | 6.0 | 15.0 | 0.00 | 0.00 | 0.00 | 52 | 1012.3 |
| 20260904211530 | 90 | 208 | 6.0 | 17.0 | 0.00 | 0.00 | 0.00 | 50 | 1012.5 |
| 20260904210031 | 90 | 193 | 5.0 | 12.0 | 0.00 | 0.00 | 0.00 | 52 | 1012.5 |
| 20260904204524 | 89 | 115 | 4.0 | 15.0 | 0.00 | 0.00 | 0.00 | 57 | 1012.8 |
| 20260904203024 | 89 | 245 | 4.0 | 12.0 | 0.00 | 0.00 | 0.00 | 58 | 1012.9 |
| 20260904201523 | 89 | 120 | 5.0 | 8.0 | 0.00 | 0.00 | 0.00 | 59 | 1013.0 |
| 20260904200042 | 87 | 160 | 3.0 | 8.0 | 0.00 | 0.00 | 0.00 | 62 | 1013.2 |
| 20260904194519 | 87 | 174 | 2.0 | 9.0 | 0.00 | 0.00 | 0.00 | 63 | 1013.3 |
| 20260904193020 | 87 | 155 | 3.0 | 12.0 | 0.00 | 0.00 | 0.00 | 63 | 1013.4 |
| 20260904191520 | 88 | 191 | 4.0 | 9.0 | 0.00 | 0.00 | 0.00 | 64 | 1013.5 |
| 20260904190016 | 85 | 121 | 3.0 | 11.0 | 0.00 | 0.00 | 0.00 | 69 | 1013.9 |
| 20260904184514 | 86 | 139 | 5.0 | 11.0 | 0.00 | 0.00 | 0.00 | 68 | 1014.0 |
| 20260904183010 | 85 | 199 | 1.0 | 7.0 | 0.00 | 0.00 | 0.00 | 72 | 1014.2 |
| 20260904181510 | 84 | 155 | 5.0 | 11.0 | 0.00 | 0.00 | 0.00 | 71 | 1014.3 |
| 20260904180008 | 84 | 207 | 4.0 | 10.0 | 0.00 | 0.00 | 0.00 | 72 | 1014.4 |
| 20260904174510 | 84 | 198 | 3.0 | 9.0 | 0.00 | 0.00 | 0.00 | 72 | 1014.6 |
| 20260904173006 | 83 | 131 | 2.0 | 9.0 | 0.00 | 0.00 | 0.00 | 75 | 1014.7 |
| 20260904171501 | 83 | 195 | 4.0 | 11.0 | 0.00 | 0.00 | 0.00 | 74 | 1014.7 |
| 20260904170058 | 82 | 215 | 5.0 | 11.0 | 0.00 | 0.00 | 0.00 | 76 | 1014.6 |
| 20260904164556 | 82 | 211 | 4.0 | 10.0 | 0.00 | 0.00 | 0.00 | 78 | 1014.5 |
| 20260904163056 | 81 | 186 | 2.0 | 10.0 | 0.00 | 0.00 | 0.00 | 79 | 1014.4 |
| 20260904161601 | 80 | 243 | 6.0 | 11.0 | 0.00 | 0.00 | 0.00 | 80 | 1014.4 |
| 20260904160049 | 80 | 199 | 5.0 | 12.0 | 0.00 | 0.00 | 0.00 | 82 | 1014.4 |
| 20260904154547 | 80 | 213 | 3.0 | 10.0 | 0.00 | 0.00 | 0.00 | 83 | 1014.5 |
| 20260904153047 | 80 | 186 | 5.0 | 11.0 | 0.00 | 0.00 | 0.00 | 83 | 1014.5 |
| 20260904151541 | 80 | 213 | 3.0 | 7.0 | 0.00 | 0.00 | 0.00 | 84 | 1014.5 |
| 20260904150038 | 79 | 222 | 3.0 | 8.0 | 0.00 | 0.00 | 0.00 | 85 | 1014.6 |
| 20260904144535 | 79 | 231 | 3.0 | 7.0 | 0.00 | 0.00 | 0.00 | 87 | 1014.8 |
| 20260904143032 | 78 | 163 | 4.0 | 10.0 | 0.00 | 0.00 | 0.00 | 88 | 1014.5 |
| 20260904141533 | 78 | 160 | 3.0 | 5.0 | 0.00 | 0.00 | 0.00 | 89 | 1014.5 |
| 20260904140030 | 78 | 184 | 2.0 | 4.0 | 0.00 | 0.00 | 0.00 | 90 | 1014.5 |
| 20260904134528 | 77 | 187 | 2.0 | 5.0 | 0.00 | 0.00 | 0.00 | 91 | 1014.4 |
| 20260904133026 | 77 | 189 | 1.0 | 5.0 | 0.00 | 0.00 | 0.00 | 92 | 1014.2 |
| 20260904131524 | 77 | 146 | 2.0 | 7.0 | 0.00 | 0.00 | 0.00 | 92 | 1014.1 |
| 20260904130024 | 77 | 155 | 4.0 | 8.0 | 0.00 | 0.00 | 0.00 | 92 | 1014.0 |
| 20260904124526 | 76 | 119 | 4.0 | 7.0 | 0.00 | 0.00 | 0.00 | 92 | 1013.8 |
| 20260904123020 | 76 | 169 | 3.0 | 8.0 | 0.00 | 0.00 | 0.00 | 92 | 1013.6 |
| 20260904121519 | 76 | 141 | 3.0 | 9.0 | 0.00 | 0.00 | 0.00 | 92 | 1013.5 |
| 20260904120018 | 76 | 160 | 3.0 | 8.0 | 0.00 | 0.00 | 0.00 | 92 | 1013.1 |
| 20260904114515 | 76 | 176 | 2.0 | 7.0 | 0.00 | 0.00 | 0.00 | 92 | 1013.0 |
| 20260904113013 | 76 | 143 | 3.0 | 7.0 | 0.00 | 0.00 | 0.00 | 92 | 1013.0 |
| 20260904111512 | 76 | 135 | 3.0 | 7.0 | 0.00 | 0.00 | 0.00 | 92 | 1012.9 |
| 20260904110011 | 76 | 93 | 2.0 | 7.0 | 0.00 | 0.00 | 0.00 | 91 | 1012.8 |
| 20260904104511 | 76 | 124 | 2.0 | 7.0 | 0.00 | 0.00 | 0.00 | 91 | 1012.4 |
| 20260904103007 | 76 | 159 | 4.0 | 8.0 | 0.00 | 0.00 | 0.00 | 90 | 1012.4 |
| 20260904101511 | 77 | 197 | 4.0 | 7.0 | 0.00 | 0.00 | 0.00 | 90 | 1012.5 |
| 20260904100007 | 77 | 143 | 2.0 | 6.0 | 0.00 | 0.00 | 0.00 | 90 | 1012.5 |
| 20260904094511 | 77 | 149 | 3.0 | 8.0 | 0.00 | 0.00 | 0.00 | 90 | 1012.3 |
| 20260904093011 | 77 | 205 | 3.0 | 8.0 | 0.00 | 0.00 | 0.00 | 89 | 1012.2 |
| 20260904091503 | 77 | 176 | 3.0 | 7.0 | 0.00 | 0.00 | 0.00 | 89 | 1012.3 |
| 20260904090003 | 77 | 158 | 3.0 | 7.0 | 0.00 | 0.00 | 0.00 | 89 | 1012.3 |
| 20260904084502 | 77 | 200 | 5.0 | 9.0 | 0.00 | 0.00 | 0.00 | 89 | 1012.3 |
| 20260904083100 | 77 | 174 | 4.0 | 10.0 | 0.00 | 0.00 | 0.00 | 88 | 1012.3 |
| 20260904081558 | 77 | 205 | 5.0 | 10.0 | 0.00 | 0.00 | 0.00 | 88 | 1012.2 |
| 20260904080057 | 77 | 218 | 4.0 | 10.0 | 0.00 | 0.00 | 0.00 | 87 | 1012.3 |
| 20260904074555 | 78 | 181 | 6.0 | 12.0 | 0.00 | 0.00 | 0.00 | 87 | 1012.3 |
| 20260904073056 | 78 | 204 | 5.0 | 12.0 | 0.00 | 0.00 | 0.00 | 86 | 1012.5 |
| 20260904071557 | 78 | 159 | 7.0 | 12.0 | 0.00 | 0.00 | 0.00 | 86 | 1012.6 |
| 20260904070050 | 78 | 230 | 7.0 | 16.0 | 0.00 | 0.00 | 0.00 | 85 | 1012.6 |
| 20260904064549 | 78 | 155 | 6.0 | 15.0 | 0.00 | 0.00 | 0.00 | 85 | 1012.7 |
| 20260904063050 | 78 | 162 | 5.0 | 12.0 | 0.00 | 0.00 | 0.00 | 84 | 1012.8 |
| 20260904061545 | 78 | 166 | 7.0 | 13.0 | 0.00 | 0.00 | 0.00 | 83 | 1012.8 |
| 20260904060042 | 78 | 162 | 6.0 | 11.0 | 0.00 | 0.00 | 0.00 | 82 | 1012.8 |
| 20260904054539 | 78 | 164 | 6.0 | 11.0 | 0.00 | 0.00 | 0.00 | 82 | 1012.8 |
| 20260904053037 | 78 | 150 | 5.0 | 11.0 | 0.00 | 0.00 | 0.00 | 81 | 1012.7 |
| 20260904051535 | 78 | 134 | 5.0 | 9.0 | 0.00 | 0.00 | 0.00 | 81 | 1012.5 |
| 20260904050033 | 78 | 139 | 4.0 | 9.0 | 0.00 | 0.00 | 0.00 | 80 | 1012.5 |
| 20260904044536 | 78 | 141 | 5.0 | 10.0 | 0.00 | 0.00 | 0.00 | 79 | 1012.5 |
| 20260904043031 | 79 | 145 | 5.0 | 13.0 | 0.00 | 0.00 | 0.00 | 79 | 1012.5 |
| 20260904041529 | 79 | 157 | 7.0 | 14.0 | 0.00 | 0.00 | 0.00 | 78 | 1012.4 |
| 20260904040029 | 79 | 129 | 6.0 | 16.0 | 0.00 | 0.00 | 0.00 | 77 | 1012.4 |
| 20260904034530 | 79 | 131 | 7.0 | 14.0 | 0.00 | 0.00 | 0.00 | 76 | 1012.4 |
| 20260904033036 | 80 | 127 | 5.0 | 11.0 | 0.00 | 0.00 | 0.00 | 75 | 1012.3 |
| 20260904031528 | 80 | 122 | 5.0 | 12.0 | 0.00 | 0.00 | 0.00 | 74 | 1012.2 |
| 20260904030027 | 81 | 126 | 8.0 | 16.0 | 0.00 | 0.00 | 0.00 | 72 | 1012.0 |
| 20260904024527 | 81 | 147 | 7.0 | 14.0 | 0.00 | 0.00 | 0.00 | 72 | 1011.8 |
| 20260904023025 | 81 | 109 | 6.0 | 14.0 | 0.00 | 0.00 | 0.00 | 73 | 1011.7 |
| 20260904021625 | 81 | 69 | 5.0 | 11.0 | 0.00 | 0.00 | 0.00 | 73 | 1011.6 |
| 20260904020024 | 81 | 134 | 4.0 | 10.0 | 0.00 | 0.00 | 0.00 | 72 | 1011.2 |
| 20260904014523 | 82 | 127 | 5.0 | 12.0 | 0.00 | 0.00 | 0.00 | 71 | 1010.9 |
| 20260904013022 | 82 | 113 | 4.0 | 11.0 | 0.00 | 0.00 | 0.00 | 70 | 1011.0 |
| 20260904011522 | 83 | 96 | 5.0 | 12.0 | 0.00 | 0.00 | 0.00 | 68 | 1010.8 |
| 20260904010022 | 83 | 165 | 6.0 | 13.0 | 0.00 | 0.00 | 0.00 | 67 | 1010.8 |
| 20260904004521 | 84 | 109 | 6.0 | 15.0 | 0.00 | 0.00 | 0.00 | 65 | 1010.8 |
| 20260904003024 | 85 | 122 | 9.0 | 15.0 | 0.00 | 0.00 | 0.00 | 63 | 1010.8 |
| 20260904001519 | 85 | 80 | 8.0 | 16.0 | 0.00 | 0.00 | 0.00 | 62 | 1010.7 |
| 20260904000019 | 86 | 95 | 6.0 | 15.0 | 0.00 | 0.00 | 0.00 | 61 | 1010.5 |
| 20260903234518 | 86 | 117 | 8.0 | 16.0 | 0.00 | 0.00 | 0.00 | 62 | 1010.5 |
| 20260903233017 | 87 | 107 | 10.0 | 18.0 | 0.00 | 0.00 | 0.00 | 61 | 1010.4 |